TimeMDT,TemperatureF,Dew PointF,Humidity,Sea Level PressureIn,VisibilityMPH,Wind Direction,Wind SpeedMPH,Gust SpeedMPH,PrecipitationIn,Events,Conditions,WindDirDegrees,DateUTC
12:52 AM,70.0,59.0,68,29.88,10.0,NW,8.1,-,N/A,,Clear,320,2013-08-27 06:52:00
1:52 AM,66.0,57.9,75,29.87,10.0,NW,5.8,-,N/A,,Clear,320,2013-08-27 07:52:00
2:52 AM,64.9,55.9,73,29.88,10.0,NW,4.6,-,N/A,,Clear,320,2013-08-27 08:52:00
3:52 AM,66.9,54.0,63,29.87,10.0,Calm,Calm,-,N/A,,Clear,0,2013-08-27 09:52:00
4:52 AM,66.0,54.0,65,29.87,10.0,WNW,6.9,-,N/A,,Clear,300,2013-08-27 10:52:00
5:52 AM,66.0,54.0,65,29.89,10.0,NW,6.9,-,N/A,,Clear,310,2013-08-27 11:52:00
6:52 AM,72.0,54.0,53,29.89,10.0,NW,4.6,-,N/A,,Clear,320,2013-08-27 12:52:00
7:52 AM,78.1,55.0,45,29.89,10.0,Calm,Calm,-,N/A,,Clear,0,2013-08-27 13:52:00
8:52 AM,82.9,55.9,39,29.90,10.0,SSE,5.8,-,N/A,,Clear,150,2013-08-27 14:52:00
9:52 AM,88.0,57.9,36,29.89,10.0,SSE,9.2,-,N/A,,Clear,150,2013-08-27 15:52:00
10:52 AM,91.0,55.0,29,29.88,10.0,Variable,5.8,-,N/A,,Clear,0,2013-08-27 16:52:00
11:52 AM,96.1,51.1,22,29.86,10.0,SSE,10.4,-,N/A,,Clear,150,2013-08-27 17:52:00
12:52 PM,97.0,52.0,22,29.83,10.0,South,9.2,-,N/A,,Clear,170,2013-08-27 18:52:00
1:52 PM,99.0,50.0,19,29.83,10.0,South,6.9,17.3,N/A,,Clear,170,2013-08-27 19:52:00
2:52 PM,100.0,51.1,19,29.81,10.0,SSE,9.2,17.3,N/A,,Clear,160,2013-08-27 20:52:00
3:52 PM,100.0,50.0,18,29.78,10.0,SSE,15.0,23.0,N/A,,Clear,150,2013-08-27 21:52:00
4:52 PM,99.0,48.9,18,29.78,10.0,South,16.1,21.9,N/A,,Clear,180,2013-08-27 22:52:00
5:52 PM,97.0,54.0,23,29.78,10.0,NW,12.7,23.0,N/A,,Clear,310,2013-08-27 23:52:00
6:52 PM,93.0,54.0,27,29.80,10.0,NNW,13.8,-,N/A,,Clear,340,2013-08-28 00:52:00
7:52 PM,86.0,54.0,33,29.83,10.0,NNW,12.7,-,N/A,,Clear,330,2013-08-28 01:52:00
8:52 PM,77.0,63.0,62,29.87,10.0,NNW,19.6,-,N/A,,Clear,340,2013-08-28 02:52:00
9:52 PM,75.0,63.0,66,29.88,10.0,NNW,18.4,-,N/A,,Clear,330,2013-08-28 03:52:00
10:52 PM,73.0,64.0,73,29.88,10.0,North,15.0,-,0.00,,Partly Cloudy,350,2013-08-28 04:52:00
11:52 PM,71.1,63.0,75,29.89,10.0,NW,11.5,-,N/A,,Clear,320,2013-08-28 05:52:00